Location: Laura�t
(43.9341°N, 0.2497°E)
Time: 22:56:58
(UTC+00:00)

Cosmos 1302 Rocket - Pass Details

Date: 03 March 2021
Orbit: 756 x 777 km, 74.0° (Epoch: 17 April)

Event Time Altitude Azimuth Distance (km) Brightness Sun altitude
Rises 18:06:35 0° 198° (SSW) 3,196 7.6 -3.8°
Reaches altitude 10° 18:08:56 10° 199° (SSW) 2,276 6.8 -4.2°
Maximum altitude 18:14:06 90° 126° (SE) 764 4.1 -5.1°
Drops below altitude 10° 18:19:20 10° 21° (NNE) 2,300 6.2 -6.0°
Sets 18:21:43 0° 21° (NNE) 3,232 7.0 -6.5°
